• Join FlightAware (Why Join?)
  • Login
  • US Flag GB Flag 
04:03 EDT


 

Airport Tracker/Info


-or-


 

Live Flight TrackerFlight Track Log ✈ EJA349 ✈ 16-Mar-2012 ✈ KOCF - KLGA

Flight Track Log - Related Links

Times and Time Zones

All times are in EDT time to prevent confusion due to time zone crossing. See the EJA349 flight status page for this flight to view local times or setup timezone preferences in your user account.

Time Position Orientation Groundspeed Altitude Reporting Facility
EDT Latitude Longitude Course Direction KTS MPH feet Rate Location/Type
16:35 29.1814 -82.2267 355° North 158 182 700  Level Jacksonville Center
16:36 29.2522 -82.2333 17° North 206 237 2,100 1,260 Climbing Jacksonville Center
16:37 29.3003 -82.2164 30° Northeast 218 251 3,400 3,180 Climbing Jacksonville Center
16:39 29.4542 -82.1128 30° Northeast 277 319 12,400 3,720 Climbing Jacksonville Center
16:40 29.5269 -82.0644 30° Northeast 287 330 15,800 2,940 Climbing Jacksonville Center
16:41 29.5933 -82.0208 31° Northeast 292 336 18,300 2,460 Climbing Jacksonville Center
16:42 29.6744 -81.9650 31° Northeast 306 352 20,800 2,160 Climbing Jacksonville Center
16:43 29.7594 -81.9069 29° Northeast 331 381 22,700 1,440 Climbing Jacksonville Center
16:44 29.8572 -81.8436 31° Northeast 367 422 23,700 1,500 Climbing Jacksonville Center
16:45 29.9608 -81.7706 31° Northeast 404 465 25,700 1,920 Climbing Jacksonville Center
16:46 30.0606 -81.7022 31° Northeast 415 478 27,600 1,980 Climbing Jacksonville Center
16:47 30.1725 -81.6239 31° Northeast 424 488 29,700 1,860 Climbing Jacksonville Center
16:48 30.2761 -81.5506 19° North 424 488 31,400 1,500 Climbing Jacksonville Center
16:49 30.3883 -81.5056 North 418 481 32,800 780 Climbing Jacksonville Center
16:50 30.5072 -81.4967 North 413 475 33,000 60 Climbing Jacksonville Center
16:51 30.6325 -81.4875 North 431 496 33,000  Level Jacksonville Center
16:52 30.7597 -81.4758 North 443 510 33,000  Level Jacksonville Center
16:53 30.8850 -81.4667 North 443 510 33,000  Level Jacksonville Center
16:54 31.0039 -81.4553 North 443 510 33,000  Level Jacksonville Center
16:55 31.1269 -81.4461 North 443 510 33,000  Level Jacksonville Center
16:56 31.2500 -81.4344 12° North 443 510 33,000 300 Level Jacksonville Center
16:57 31.3664 -81.4058 12° North 433 498 33,600 900 Climbing Jacksonville Center
16:58 31.4747 -81.3797 13° North 426 490 34,900 660 Climbing Jacksonville Center
16:59 31.6039 -81.3436 13° North 431 496 35,000  Climbing Jacksonville Center
17:00 31.7225 -81.3122 12° North 431 496 35,000  Level Jacksonville Center
17:01 31.8286 -81.2861 14° North 431 496 35,000 300 Level Jacksonville Center
17:02 31.9575 -81.2494 27° Northeast 431 496 35,700 900 Climbing Jacksonville Center
17:03 32.0631 -81.1864 31° Northeast 418 481 36,900 960 Climbing Jacksonville Center
17:04 32.1625 -81.1158 38° Northeast 414 476 37,700 720 Climbing Jacksonville Center
17:05 32.2572 -81.0281 50° Northeast 431 496 38,400 600 Climbing Jacksonville Center
17:06 32.3267 -80.9308 50° Northeast 427 491 38,900 600 Climbing Jacksonville Center
17:07 32.4144 -80.8081 51° Northeast 437 503 39,600 720 Climbing Jacksonville Center
17:08 32.4919 -80.6956 48° Northeast 437 503 40,400 660 Climbing Jacksonville Center
17:09 32.5714 -80.5903 46° Northeast 424 488 41,000 300 Climbing Jacksonville Center
17:10 32.6553 -80.4869 47° Northeast 424 488 41,000  Level Jacksonville Center
17:11 32.7367 -80.3833 47° Northeast 430 495 41,000  Level Jacksonville Center
17:12 32.8200 -80.2772 46° Northeast 430 495 41,000  Level Jacksonville Center
17:13 32.9033 -80.1736 46° Northeast 430 495 41,000 -60 Level Jacksonville Center
17:14 32.9889 -80.0669 46° Northeast 430 495 40,900  Descending Jacksonville Center
17:15 33.0742 -79.9625 42° Northeast 435 501 41,000  Climbing Jacksonville Center
17:16 33.1556 -79.8756 13° North 435 501 41,000  Level Jacksonville Center
17:17 33.2675 -79.8444 10° North 415 478 41,000  Level Jacksonville Center
17:18 33.3858 -79.8206 North 405 466 41,000  Level Jacksonville Center
17:19 33.5022 -79.7989 10° North 416 479 41,000  Level Jacksonville Center
17:20 33.6206 -79.7750 North 421 484 41,000  Level Jacksonville Center
17:21 33.7369 -79.7533 10° North 426 490 41,000  Level Jacksonville Center
17:22 33.8553 -79.7292 North 426 490 41,000  Level Jacksonville Center
17:23 33.9736 -79.7072 10° North 426 490 41,000  Level Jacksonville Center
17:24 34.0897 -79.6831 10° North 426 490 41,000  Level Jacksonville Center
17:25 34.2103 -79.6586 22° Northeast 426 490 41,000  Level Jacksonville Center
17:27 34.4636 -79.5339 22° Northeast 439 505 41,000  Level Washington Center
17:28 34.5761 -79.4789 24° Northeast 439 505 41,000  Level Washington Center
17:29 34.6908 -79.4161 23° Northeast 444 511 41,000  Level Washington Center
17:30 34.8031 -79.3583 23° Northeast 444 511 41,000  Level Washington Center
17:31 34.9261 -79.2956 24° Northeast 444 511 41,000  Level Washington Center
17:32 35.0386 -79.2347 23° Northeast 444 511 41,000  Level Washington Center
17:33 35.1531 -79.1739 24° Northeast 439 505 41,000  Level Washington Center
17:34 35.2611 -79.1150 North 428 493 41,000  Level Washington Center
17:35 35.3725 -79.0944 353° North 419 482 41,000  Level Washington Center
17:36 35.4722 -79.1092 352° North 395 455 41,000  Level Washington Center
17:37 35.5947 -79.1297 North 400 460 41,000  Level Washington Center
17:38 35.6969 -79.1267 35° Northeast 400 460 41,000  Level Washington Center
17:39 35.7911 -79.0464 41° Northeast 387 445 41,000  Level Washington Center
17:40 35.8817 -78.9503 39° Northeast 404 465 41,000  Level Washington Center
17:41 35.9694 -78.8617 42° Northeast 404 465 41,000  Level Washington Center
17:42 36.0642 -78.7578 40° Northeast 409 471 41,000  Level Washington Center
17:43 36.1522 -78.6661 40° Northeast 409 471 41,000  Level Washington Center
17:44 36.2378 -78.5767 41° Northeast 409 471 41,000  Level Washington Center
17:45 36.3256 -78.4819 40° Northeast 415 478 41,000  Level Washington Center
17:46 36.4133 -78.3897 40° Northeast 415 478 41,000  Level Washington Center
17:47 36.5011 -78.2972 39° Northeast 409 471 41,000  Level Washington Center
17:48 36.5864 -78.2097 40° Northeast 409 471 41,000  Level Washington Center
17:49 36.6742 -78.1169 40° Northeast 409 471 41,000  Level Washington Center
17:50 36.7531 -78.0339 39° Northeast 409 471 41,000  Level Washington Center
17:51 36.8425 -77.9433 41° Northeast 409 471 41,000  Level Washington Center
17:52 36.9319 -77.8472 40° Northeast 409 471 41,000  Level Washington Center
17:53 37.0233 -77.7511 40° Northeast 414 476 41,000  Level Washington Center
17:54 37.1189 -77.6522 39° Northeast 420 483 41,000  Level Washington Center
17:55 37.2103 -77.5581 40° Northeast 420 483 41,000  Level Washington Center
17:56 37.3036 -77.4586 40° Northeast 425 489 41,000  Level Washington Center
17:57 37.3969 -77.3589 39° Northeast 431 496 41,000  Level Washington Center
17:58 37.4900 -77.2642 40° Northeast 431 496 41,000  Level Washington Center
17:59 37.5853 -77.1617 41° Northeast 431 496 41,000  Level Washington Center
18:00 37.6867 -77.0508 40° Northeast 431 496 41,000  Level Washington Center
18:01 37.7797 -76.9503 41° Northeast 436 502 41,000 -60 Level Washington Center
18:02 37.8725 -76.8492 39° Northeast 436 502 40,900 -600 Descending Washington Center
18:03 37.9694 -76.7508 37° Northeast 436 502 39,800 -960 Descending Washington Center
18:04 38.0619 -76.6625 38° Northeast 447 514 39,000 -960 Descending Washington Center
18:05 38.1631 -76.5636 38° Northeast 453 521 38,000 -780 Descending Washington Center
18:06 38.2639 -76.4644 37° Northeast 453 521 37,500 -780 Descending Washington Center
18:07 38.3792 -76.3544 38° Northeast 464 534 36,500 -1,020 Descending Washington Center
18:08 38.4819 -76.2519 39° Northeast 464 534 35,500 -1,020 Descending Washington Center
18:09 38.5700 -76.1600 36° Northeast 458 527 34,600 -1,020 Descending Washington Center
18:10 38.6747 -76.0622 38° Northeast 458 527 33,500 -1,080 Descending Washington Center
18:11 38.7794 -75.9564 38° Northeast 468 539 32,500 -1,020 Descending Washington Center
18:12 38.8839 -75.8531 39° Northeast 468 539 31,500 -1,020 Descending Washington Center
18:13 38.9903 -75.7439 36° Northeast 473 544 30,500 -960 Descending Washington Center
18:14 39.0989 -75.6425 35° Northeast 473 544 29,600 -840 Descending Washington Center
18:15 39.2072 -75.5433 36° Northeast 478 550 28,900 -960 Descending Washington Center
18:16 39.3114 -75.4467 34° Northeast 478 550 27,800 -1,620 Descending Washington Center
18:17 39.4175 -75.3525 34° Northeast 467 537 25,800 -1,920 Descending Washington Center
18:18 39.5194 -75.2633 36° Northeast 456 525 24,000 -1,920 Descending Washington Center
18:19 39.6169 -75.1714 34° Northeast 440 506 21,900 -2,280 Descending Washington Center
18:20 39.7208 -75.0789 34° Northeast 423 487 19,500 -2,100 Descending Washington Center
18:21 39.8100 -75.0000 41° Northeast 399 459 17,800 -1,980 Descending Washington Center
18:24 39.9833 -74.8000 44° Northeast 365 420 13,100 -2,040 Descending New York TRACON
18:25 40.0500 -74.7167 52° Northeast 312 359 11,400 -1,560 Descending New York TRACON
18:26 40.1000 -74.6333 46° Northeast 292 336 10,000 -720 Descending New York TRACON
18:27 40.1500 -74.5667 44° Northeast 296 341 10,000  Level New York TRACON
18:28 40.2167 -74.4833 45° Northeast 290 334 10,000 -120 Level New York TRACON
18:29 40.2667 -74.4167 45° Northeast 252 290 9,800 -720 Descending New York TRACON
18:30 40.3167 -74.3500 49° Northeast 234 269 8,600 -1,200 Descending New York TRACON
18:31 40.3500 -74.3000 37° Northeast 210 242 7,400 -840 Descending New York TRACON
18:32 40.4000 -74.2500 27° Northeast 204 235 7,000 -240 Descending New York TRACON
18:33 40.4500 -74.2167 49° Northeast 205 236 7,000 -780 Level New York TRACON
18:34 40.4833 -74.1667 49° Northeast 203 234 5,500 -1,440 Descending New York TRACON
18:35 40.5167 -74.1167 27° Northeast 191 220 4,200 -1,080 Descending New York TRACON
18:36 40.5667 -74.0833 49° Northeast 181 208 3,400 -720 Descending New York TRACON
18:37 40.6000 -74.0333 37° Northeast 185 213 2,800 -360 Descending New York TRACON
18:38 40.6333 -74.0000 37° Northeast 165 190 2,700 -300 Descending New York TRACON
18:39 40.6667 -73.9667 37° Northeast 144 166 2,300 -600 Descending New York TRACON
18:40 40.7000 -73.9333 21° North 138 159 1,600 -720 Descending New York TRACON
18:41 40.7333 -73.9167 37° Northeast 121 139 900 -660 Descending New York TRACON
18:42 40.7667 -73.8833 37° Northeast 117 135 300 -600 Descending New York TRACON